Weather History for CWSP - October, 2012

Change the Weather History Date:

Sunday, October 7, 2012

  Actual Average Record
Temperature  
Mean Temperature 57 °F -  
Max Temperature 65 °F - - ()
Min Temperature 49 °F - - ()
Degree Days  
Heating Degree Days 8    
Growing Degree Days 7 (Base 50)    
Moisture  
Dew Point 41 °F    
Average Humidity 57    
Maximum Humidity 73    
Minimum Humidity 31    
Precipitation  
Precipitation 0.00 in - - ()
Sea Level Pressure  
Sea Level Pressure 30.04 in    
Wind  
Wind Speed 4 mph ()    
Max Wind Speed 15 mph    
Max Gust Speed -    
T = Trace of Precipitation, MM = Missing Value Source: Averaged Metar Reports

Daily Weather History Graph

Daily Weather History Graph

Search for Another Location

Airport or City:

Trip Planner

Search our weather history database for the weather conditions in past years. The results will help you decide how hot, cold, wet, or windy it might be!

Date:

Astronomy

Oct. 07, 2012 Rise Set
Actual Time 7:24 AM PDT 6:41 PM PDT
Civil Twilight 6:53 AM PDT 7:12 PM PDT
Nautical Twilight 6:17 AM PDT 7:48 PM PDT
Astronomical Twilight 5:40 AM PDT 8:24 PM PDT
Moon 11:40 PM PDT (10/7) 2:24 PM PDT (10/7)
Length of Visible Light 12h 19m
Length of Day
11h 16m
Waning Gibbous, 55% of the Moon is Illuminated
Oct 7
Waning Gibbous
Oct 8
Last Quarter
Oct 15
New
Oct 21
First Quarter
Oct 29
Full

Hourly Weather History & Observations

Time (PDT) Temp. Dew Point Humidity Pressure Visibility Wind Dir Wind Speed Gust Speed Precip Events Conditions
12:00 AM 55.9 °F 37.8 °F 51% 30.14 in - East 3.5 mph - N/A   Unknown
1:00 AM 59.5 °F 36.3 °F 42% 30.13 in - East 4.6 mph - N/A   Unknown
2:00 AM 54.1 °F 38.3 °F 55% 30.13 in - West 1.2 mph - N/A   Unknown
3:00 AM 51.1 °F 41.2 °F 69% 30.11 in - West 1.2 mph - N/A   Unknown
4:00 AM 50.4 °F 41.4 °F 71% 30.11 in - WNW 3.5 mph - N/A   Unknown
5:00 AM 51 °F 39 °F 54% 30.11 in - West 1.2 mph - -  
5:00 AM 50.9 °F 39.4 °F 65% 30.11 in - West 1.2 mph - N/A   Unknown
7:00 AM 58.3 °F 36.3 °F 44% 30.09 in - East 6.9 mph - N/A   Unknown
8:00 AM 58.8 °F 36.3 °F 43% 30.09 in - East 5.8 mph - N/A   Unknown
9:00 AM 59.0 °F 36.5 °F 43% 30.09 in - East 9.2 mph - N/A   Unknown
11:00 AM 54 °F 43 °F 57% 30.08 in - East 15.0 mph - -  
11:00 AM 54.3 °F 43.0 °F 66% 30.08 in - East 15.0 mph - N/A   Unknown
12:00 PM 53.8 °F 44.4 °F 71% 30.06 in - East 11.5 mph - N/A   Unknown
1:00 PM 54.9 °F 44.6 °F 68% 30.06 in - East 9.2 mph - N/A   Unknown
2:00 PM 55.0 °F 44.6 °F 68% 30.04 in - East 8.1 mph - N/A   Unknown
3:00 PM 58.6 °F 43.7 °F 58% 30.02 in - East 8.1 mph - N/A   Unknown
4:00 PM 61.3 °F 41.4 °F 48% 30.00 in - East 5.8 mph - N/A   Unknown
5:00 PM 64 °F 41 °F 31% 29.98 in - East 5.8 mph - -  
5:00 PM 64.2 °F 40.6 °F 42% 29.98 in - East 5.8 mph - N/A   Unknown
6:00 PM 59.7 °F 44.1 °F 56% 29.96 in - East 4.6 mph - N/A   Unknown
7:00 PM 54.1 °F 45.5 °F 73% 29.95 in - WNW 5.8 mph - N/A   Unknown
8:00 PM 56.1 °F 42.6 °F 61% 29.94 in - Calm Calm - N/A   Unknown
9:00 PM 56.1 °F 41.7 °F 58% 29.94 in - Calm Calm - N/A   Unknown
10:00 PM 53.4 °F 42.3 °F 66% 29.95 in - Calm Calm - N/A   Unknown
11:00 PM 53 °F 42 °F 57% 29.94 in - Calm Calm - -  
11:00 PM 52.7 °F 42.3 °F 68% 29.94 in - Calm Calm - N/A   Unknown